Regional Weather Roundup
Issued by NWS

Home | Current Version | Previous Version | Text Only | Print | Product List | Glossary Off
Versions: 1 2 3 4 5 6 7 8 9 10 11 12 13 14 15 16 17 18 19 20 21 22 23 24 25 26 27 28 29 30 31 32 33 34 35 36 37 38 39 40 41 42 43 44 45 46 47 48 49 50

000
ASUS45 KBOI 312210
RWRID

IDAHO REGIONAL WEATHER ROUNDUP
NATIONAL WEATHER SERVICE BOISE ID
400 PM MDT MON AUG 31 2015

NOTE: "FAIR" INDICATES FEW OR NO CLOUDS BELOW 12000 FEET
WITH NO SIGNIFICANT WEATHER AND/OR OBSTRUCTIONS TO VISIBILITY

IDZ012-014-312300-
SOUTHWEST IDAHO


CITY           SKY/WX    TMP DP  RH WIND       PRES   REMARKS
BOISE          SUNNY     81  40  23 CALM      29.97F
CALDWELL       SUNNY     79  43  27 CALM      29.98F
MOUNTAIN HOME  SUNNY     82  35  18 VRB5      29.96F
$$

IDZ016-017-312300-
SOUTHCENTRAL IDAHO


CITY           SKY/WX    TMP DP  RH WIND       PRES   REMARKS
BURLEY         SUNNY     79  36  21 VRB5      30.02F
JEROME         SUNNY     78  37  22 VRB5      30.03F
TWIN FALLS     SUNNY     79  39  23 CALM      30.03F
$$

IDZ019>023-312300-
SOUTHEAST IDAHO


CITY           SKY/WX    TMP DP  RH WIND       PRES   REMARKS
IDAHO FALLS    SUNNY     79  31  17 SW14G21   30.06F
POCATELLO      SUNNY     80  29  15 W16       30.05F
REXBURG        SUNNY     77  34  21 SW15G25   30.06F
$$

IDZ006-010-011-018-031-032-312300-
CENTRAL IDAHO MOUNTAINS


CITY           SKY/WX    TMP DP  RH WIND       PRES   REMARKS
MCCALL         MOSUNNY   70  37  29 S14       30.06F
HAILEY         MOSUNNY   73  37  27 S12G20    30.10S
STANLEY          N/A     71  30  21 W7        30.13F
SALMON         SUNNY     77  39  25 N7        29.92F
CHALLIS        SUNNY     78  32  18 VRB5      29.99F
$$

IDZ002-004-006-007-026-312300-
NORTHERN IDAHO


CITY           SKY/WX    TMP DP  RH WIND       PRES   REMARKS
LEWISTON       MOSUNNY   79  43  27 N6        29.92F
LOWELL           N/A     78  50  37 CALM      29.93F
COEUR D`ALENE  CLOUDY    68  45  42 S14       29.96F
MULLAN PASS    PTSUNNY   52  41  66 VRB5      30.08F
$$



USA.gov is the U.S. government's official web portal to all federal, state and local government web resources and services.